Weather Roundup
Issued by NWS Chicago, IL

Home | Current Version | Previous Version | Graphics & Text | Print | Product List | Glossary On
Versions: 1 2 3 4 5 6 7 8 9 10 11 12 13 14 15 16 17 18 19 20 21 22 23 24 25 26 27 28 29 30 31 32 33 34 35 36 37 38 39 40 41 42 43 44 45 46 47 48 49 50
000
NZUS59 KLOT 221108
HRRLOT

CHICAGO AREA WEATHER ROUNDUP
NATIONAL WEATHER SERVICE CHICAGO/ROMEOVILLE IL
500 AM CST WED FEB 22 2017

NOTE: "FAIR" INDICATES FEW OR NO CLOUDS BELOW 12,000 FEET WITH NO
SIGNIFICANT WEATHER AND/OR OBSTRUCTIONS TO VISIBILITY.

* THESE STATIONS ARE NOT UNDER NWS QUALITY CONTROL. THEY ALSO MAY NOT
  REPORT WEATHER SUCH AS PRECIPITATION OR FOG.

ILZ005-006-012>014-019>023-221200-
NORTHEAST ILLINOIS

CITY           SKY/WX    TMP DP  RH WIND       PRES   REMARKS
OHARE          FOG       56  54  93 SW10      29.82R VSB 3/4
MIDWAY         CLOUDY    56  53  90 S8        29.83R FOG
AURORA         FOG       53  52  96 SW10      29.83S VSB 1/4
LANSING*       CLOUDY    52  52 100 S7        29.86R FOG
JOLIET*        FOG       53  53 100 SW3       29.86R VSB<1/4
WAUKEGAN       FOG       51  51 100 SW10      29.79S VSB 1/4
DUPAGE AIRPORT FOG       53  51  93 S12       29.81F VSB 1/4
WHEELING       FOG       53  53 100 S9        29.82S VSB 3/4
KANKAKEE*      CLEAR     47  46  98 CALM      29.87R FOG
MORRIS*        FOG       49  49  99 CALM      29.84S VSB 1/4
LEWIS AIRPORT* DRZL/FOG  52  52 100 SW6       29.85R VSB 1/4
NORTHERLY ISL    N/A     56  52  86 SW6         N/A
$$

WIZ051-052-058>065-066-070>072-221200-
SOUTHEAST WISCONSIN

CITY           SKY/WX    TMP DP  RH WIND       PRES   REMARKS
MILWAUKEE      FOG       50  48  93 SW7       29.77F VSB 1/4
KENOSHA*       FOG       46  46 100 S6        29.79S VSB<1/4
RACINE*        FOG       50  49  96 SW10      29.80S VSB 1/4
WEST BEND      CLEAR     50  48  93 SW6       29.75S
$$

INZ001>003-010>013-019-020-221200-
NORTHWEST INDIANA

CITY           SKY/WX    TMP DP  RH WIND       PRES   REMARKS
GARY*          CLOUDY    55  52  88 S7        29.85S FOG
MICHIGAN CITY* NOT AVBL
RENSSELAER*    NOT AVBL
VALPARAISO     CLEAR     49  49 100 S3        29.86S FOG
$$

LMZ740>746-221200-
SOUTHERN LAKE MICHIGAN

STATION/POSITION TIME  SKY/WX   TEMP WIND        PRES    VSBY
                                AIR  DIR/SP/G
                 (UTC)          (F)  (DEG/KT/KT) (MB)    (MI)
HARRISON CRIB    1040            56  200/ 11/ 12   N/A
BURNHAM HARBOR   1100            56  200/  7/  8   N/A
CALUMET HARBOR   1048            54  190/  6/  8 1009.9R
BURNS HARBOR     1004            54  190/ 11/ 15 1011.2
MICHIGAN CITY    1040            53  160/  7/ 10   N/A
$$

ABBREVIATIONS USED IN REMARKS
   TC - TEMPERATURE IN CELSIUS
  WCI - WIND CHILL INDEX
   HX - HEAT INDEX
  VSB - VISIBILITY
$$




USA.gov is the U.S. government's official web portal to all federal, state and local government web resources and services.